Location: Cheny Ridge Estates
(40.6074°N, 111.8785°W)
Time: 14:49:30
(UTC+00:00)

ISS - Visible Passes

Search period start: 09 May 2021 00:00
Search period end: 19 May 2021 00:00
Orbit: 418 x 421 km, 51.6° (Epoch: 09 May)

Date Brightness Start Highest point End Pass type
(mag) Time Alt. Az. Time Alt. Az. Time Alt. Az.
09 May -0.8 09:21:02 12° NNW 09:22:18 13° N 09:24:04 10° NNE visible
09 May -0.8 10:58:00 10° NNW 11:00:10 16° NNE 11:02:21 10° NE visible
10 May -0.7 08:35:01 15° N 08:35:01 15° N 08:36:41 10° NNE visible
10 May -0.7 10:10:38 10° NNW 10:12:30 14° N 10:14:21 10° NE visible
11 May -0.3 07:48:59 12° NNE 07:48:59 12° NNE 07:49:22 10° NNE visible
11 May -0.6 09:23:09 10° NNW 09:24:47 13° N 09:26:25 10° NNE visible
11 May -1.3 10:59:38 10° NW 11:02:30 25° NNE 11:05:22 10° E visible
12 May -0.5 08:35:47 11° NNW 08:37:04 13° N 08:38:40 10° NNE visible
12 May -0.9 10:12:21 10° NNW 10:14:53 19° NNE 10:17:25 10° ENE visible
13 May -0.5 07:49:34 13° N 07:49:34 13° N 07:51:07 10° NNE visible
13 May -0.6 09:25:02 10° NNW 09:27:13 16° NNE 09:29:24 10° NE visible
13 May -2.9 11:01:18 10° NW 11:04:37 53° NNE 11:07:56 10° ESE visible
14 May -2.3 03:45:01 10° S 03:46:48 19° SSE 03:46:48 19° SSE visible
14 May -0.4 07:02:59 13° NNE 07:02:59 13° NNE 07:03:42 10° NNE visible
14 May -0.5 08:37:40 10° NNW 08:39:31 14° N 08:41:22 10° NE visible
14 May -2.0 10:13:57 10° NW 10:17:06 34° NNE 10:20:13 10° E visible
15 May -3.7 04:33:20 10° WSW 04:36:41 76° NW 04:40:04 10° NE visible
15 May -0.9 06:11:32 10° WNW 06:13:57 18° NNW 06:16:22 10° NNE visible
15 May -0.4 07:50:10 10° NNW 07:51:48 13° N 07:53:26 10° NNE visible
15 May -1.4 09:26:39 10° NW 09:29:31 25° NNE 09:32:22 10° E visible
15 May -3.6 11:03:11 10° WNW 11:06:30 52° SW 11:09:47 10° SE visible
16 May -3.8 03:45:56 10° SW 03:49:15 63° SE 03:52:35 10° ENE visible
16 May -1.2 05:23:33 10° WNW 05:26:18 23° NNW 05:29:04 10° NNE visible
16 May -0.3 07:02:28 10° NNW 07:04:04 13° N 07:05:39 10° NNE visible
16 May -1.0 08:39:21 10° NNW 08:41:53 19° NNE 08:44:25 10° ENE visible
16 May -3.8 10:15:41 10° NW 10:19:04 89° NNE 10:22:27 10° SE visible
17 May -1.8 04:35:40 10° W 04:38:42 31° NNW 04:41:45 10° NE visible
17 May -0.4 06:14:34 10° NW 06:16:20 13° N 06:18:06 10° NNE visible
17 May -0.7 07:52:01 10° NNW 07:54:12 16° NNE 07:54:21 16° NNE visible
17 May -1.7 09:33:40 20° ESE 09:33:40 20° ESE 09:34:54 10° ESE visible
17 May -2.2 11:07:10 16° WSW 11:08:07 17° SW 11:10:26 10° S visible
18 May -2.6 03:47:54 10° WSW 03:51:09 45° NNW 03:54:24 10° NE visible
18 May -0.5 05:26:33 10° NW 05:28:36 15° NNW 05:30:40 10° NNE visible
18 May -0.6 07:04:38 10° NNW 07:06:29 14° N 07:07:18 13° NNE visible
